FW4468 Weather Reports


time (UTC)temp
C
wind
direction
speed
KPH
gust
KPH
rain 1hr
cm
rain 24hr
cm
rain mn
cm
humidity
%
barometer
mb
20260505224546 20 118 1.6 9.7 0.00 0.00 0.00 51 1014.6
20260505223039 19 67 1.6 11.3 0.00 0.00 0.00 52 1014.7
20260505221538 19 169 1.6 9.7 0.00 0.00 0.00 50 1014.8
20260505220137 19 191 1.6 14.5 0.00 0.00 0.00 50 1014.8
20260505214537 20 141 4.8 12.9 0.00 0.00 0.00 50 1015.0
20260505213038 19 177 3.2 16.1 0.00 0.00 0.00 50 1015.1
20260505211536 19 137 3.2 14.5 0.00 0.00 0.00 50 1015.2
20260505210030 19 187 3.2 12.9 0.00 0.00 0.00 51 1015.1
20260505204532 18 212 4.8 12.9 0.00 0.00 0.00 52 1015.2
20260505203027 17 105 1.6 12.9 0.00 0.00 0.00 55 1015.3
20260505201519 17 160 3.2 8.0 0.00 0.00 0.00 54 1015.3
20260505200017 16 74 1.6 12.9 0.00 0.00 0.00 57 1015.2
20260505194516 16 194 3.2 11.3 0.00 0.00 0.00 56 1015.3
20260505193012 15 169 0.0 9.7 0.00 0.00 0.00 60 1015.4
20260505191509 15 128 1.6 8.0 0.00 0.00 0.00 59 1015.3
20260505190014 15 216 1.6 8.0 0.00 0.00 0.00 59 1015.3
20260505184506 15 255 3.2 12.9 0.00 0.00 0.00 59 1015.3
20260505183004 15 175 3.2 9.7 0.00 0.00 0.00 59 1015.3
20260505181502 14 220 0.0 9.7 0.00 0.00 0.00 60 1015.2
20260505180107 14 174 0.0 8.0 0.00 0.00 0.00 60 1015.2
20260505174558 13 249 1.6 11.3 0.00 0.00 0.00 61 1015.2
20260505173054 13 212 1.6 12.9 0.00 0.00 0.00 62 1015.1
20260505171553 13 209 0.0 6.4 0.00 0.00 0.00 63 1015.0
20260505170050 13 155 1.6 9.7 0.00 0.00 0.00 62 1014.9
20260505164549 13 291 1.6 14.5 0.00 0.00 0.00 62 1014.9
20260505163048 12 256 1.6 8.0 0.00 0.00 0.00 62 1014.7
20260505161546 12 139 3.2 8.0 0.00 0.00 0.00 63 1014.8
20260505153047 12 227 0.0 6.4 0.00 0.00 0.00 64 1014.7
20260505151541 12 156 0.0 11.3 0.00 0.00 0.00 64 1014.6
20260505124529 12 99 0.0 4.8 0.00 0.00 0.00 67 1012.8
20260505123027 11 146 0.0 8.0 0.00 0.00 0.00 67 1012.8
20260505121527 11 181 0.0 4.8 0.00 0.00 0.00 67 1012.6
20260505120039 11 145 0.0 4.8 0.00 0.00 0.00 67 1012.7
20260505114525 11 175 0.0 6.4 0.00 0.00 0.00 67 1012.6
20260505113024 11 155 3.2 9.7 0.00 0.00 0.00 68 1012.6
20260505111530 11 112 3.2 11.3 0.00 0.00 0.00 68 1012.5
20260505101516 11 128 0.0 4.8 0.00 0.00 0.00 69 1011.9
20260505100025 11 131 0.0 6.4 0.00 0.00 0.00 69 1012.0
20260505094517 11 140 0.0 4.8 0.00 0.00 0.00 69 1012.0
20260505093111 11 146 0.0 6.4 0.00 0.00 0.00 68 1011.8
20260505091511 11 74 0.0 4.8 0.00 0.00 0.00 68 1011.9
20260505090006 11 138 0.0 4.8 0.00 0.00 0.00 68 1011.7
20260505084508 11 149 0.0 6.4 0.00 0.00 0.00 67 1011.5
20260505083002 12 137 0.0 6.4 0.00 0.00 0.00 67 1011.5
20260505081605 12 128 0.0 6.4 0.00 0.00 0.00 67 1011.5
20260505080105 12 128 0.0 6.4 0.00 0.00 0.00 67 1011.3
20260505074556 12 159 0.0 8.0 0.00 0.00 0.00 67 1011.4
20260505073059 12 180 1.6 11.3 0.00 0.00 0.00 67 1011.2
20260505071605 12 137 1.6 8.0 0.00 0.00 0.00 66 1011.0
20260505070052 13 153 1.6 11.3 0.00 0.00 0.00 66 1011.1
20260505064545 13 159 4.8 11.3 0.00 0.00 0.00 66 1010.6
20260505063050 13 135 0.0 11.3 0.00 0.00 0.00 65 1010.6
20260505061540 13 120 3.2 14.5 0.00 0.00 0.00 64 1010.6
20260505060054 14 143 3.2 12.9 0.00 0.00 0.00 64 1010.4
20260505054536 15 166 3.2 12.9 0.00 0.00 0.00 63 1010.2
20260505053037 15 189 4.8 11.3 0.00 0.00 0.00 61 1010.0
20260505051530 16 122 1.6 12.9 0.00 0.00 0.00 60 1009.9
20260505041523 17 269 0.0 3.2 0.00 0.00 0.00 49 1009.4
20260505040024 17 5 0.0 1.6 0.00 0.00 0.00 48 1009.1
20260505034521 18 5 0.0 0.0 0.00 0.00 0.00 46 1009.0
20260505033021 19 5 0.0 0.0 0.00 0.00 0.00 43 1008.8
20260505031520 20 5 0.0 0.0 0.00 0.00 0.00 40 1008.7
20260505030020 20 5 0.0 3.2 0.00 0.00 0.00 37 1008.6
20260505024519 21 5 0.0 1.6 0.00 0.00 0.00 35 1008.5
20260505023018 21 71 1.6 6.4 0.00 0.00 0.00 35 1008.4
20260505021517 22 71 1.6 6.4 0.00 0.00 0.00 36 1008.5
20260505020023 22 57 0.0 8.0 0.00 0.00 0.00 35 1008.4
20260505014530 23 67 3.2 8.0 0.00 0.00 0.00 34 1008.4
20260505013015 23 57 3.2 11.3 0.00 0.00 0.00 35 1008.4
20260505011515 24 53 1.6 8.0 0.00 0.00 0.00 35 1008.5
20260505010014 25 58 3.2 9.7 0.00 0.00 0.00 35 1008.4
20260505004513 26 69 1.6 8.0 0.00 0.00 0.00 33 1008.5
20260505003011 26 146 0.0 6.4 0.00 0.00 0.00 31 1008.4
20260505001510 26 149 0.0 6.4 0.00 0.00 0.00 29 1008.3
20260505000011 26 141 4.8 9.7 0.00 0.00 0.00 28 1008.4
20260504234507 27 146 1.6 9.7 0.00 0.00 0.00 28 1008.4
20260504233006 27 118 4.8 9.7 0.00 0.00 0.00 28 1008.5
20260504231505 27 141 1.6 11.3 0.00 0.00 0.00 31 1008.5
20260504230006 28 183 4.8 9.7 0.00 0.00 0.00 27 1008.5